Latest Coastal Weather Observations for Tasman Island

IDT60701

Issued at 2:52 am EST Friday 30 September 2016 (issued every 10 minutes, with the page automatically refreshed every 10 minutes)

About coastal observations | Map of coastal stations | Coastal observations for TAS | Marine services | Other Formats
Station Details ID: 094155 Name: TASMAN ISLAND Lat: -43.24 Lon: 148.00 Height: 240.0 m
Data from the previous 72 hours. | See also: Recent months at Tasman Island
Date/Time
EST
Temp
°C
Wind Pressure Rain since
9am
mm
Weather Cloud Vis
km
Sea
Height
m
Swell
Dir  Spd
kts
Gust
kts
hPa Trend Height
m
Period
s
Dir
30/02:30am 11.5 E 18 43 992.1 - 0.8 - - - - - - -
30/02:00am 11.4 E 19 39 992.4 - 0.8 - - - - - - -
30/01:30am 11.4 E 17 37 993.1 - 0.8 - - - - - - -
30/01:00am 11.4 E 18 42 993.3 - 0.8 - - - - - - -
30/12:30am 11.3 E 17 38 993.6 - 0.8 - - - - - - -
30/12:02am 11.1 E 15 35 993.8 - 0.6 - - - - - - -
30/12:00am 11.1 E 14 34 993.8 - 0.6 Recent precip. - - - - - -
 
Date/Time
EST
Temp
°C
Wind Pressure Rain since
9am
mm
Weather Cloud Vis
km
Sea
Height
m
Swell
Dir  Spd
kts
Gust
kts
hPa Trend Height
m
Period
s
Dir
29/11:30pm 10.9 E 16 38 994.0 - 0.6 - - - - - - -
29/11:00pm 11.2 ENE 16 33 994.3 - 0.4 - - - - - - -
29/10:30pm 11.1 ENE 21 45 994.7 - 0.4 - - - - - - -
29/10:00pm 11.1 ENE 16 39 994.7 - 0.4 - - - - - - -
29/09:30pm 11.3 ENE 26 46 995.1 - 0.0 - - - - - - -
29/09:00pm 11.4 ENE 22 42 995.1 - 0.0 - - - - - - -
29/08:30pm 11.4 ENE 22 45 994.9 - 0.0 - - - - - - -
29/08:00pm 11.4 E 24 50 995.0 - 0.0 - - - - - - -
29/07:56pm 11.4 E 23 50 995.1 - 0.0 - - - - - - -
29/07:52pm 11.4 E 20 50 995.1 - 0.0 - - - - - - -
29/07:30pm 11.5 ENE 14 36 995.3 - 0.0 - - - - - - -
29/07:00pm 11.6 E 13 40 995.8 - 0.0 - - - - - - -
29/06:50pm 11.6 NE 13 30 995.9 - 0.0 - - - - - - -
29/06:30pm 11.7 ENE 12 37 995.8 - 0.0 - - - - - - -
29/06:13pm 11.6 NE 12 28 995.7 - 0.0 - - - - - - -
29/06:00pm 11.6 NE 12 35 995.6 - 0.0 - - - - - - -
29/05:46pm 11.6 NE 12 33 995.3 - 0.0 - - - - - - -
29/05:30pm 11.6 ENE 12 37 995.1 - 0.0 - - - - - - -
29/05:01pm 11.5 ENE 13 33 995.1 - 0.0 - - - - - - -
29/05:00pm 11.5 NE 12 31 995.0 - 0.0 - - - - - - -
29/04:41pm 11.5 NNE 13 49 995.2 - 0.0 - - - - - - -
29/04:40pm 11.5 N 12 38 995.0 - 0.0 - - - - - - -
29/04:39pm 11.5 N 12 38 995.0 - 0.0 - - - - - - -
29/04:30pm 11.6 ENE 13 38 994.9 - 0.0 - - - - - - -
29/04:03pm 11.6 NE 13 34 995.0 - 0.0 - - - - - - -
29/04:00pm 11.6 NE 12 34 994.9 - 0.0 - - - - - - -
29/03:46pm 11.7 NE 13 36 994.9 - 0.0 - - - - - - -
29/03:30pm 11.7 NE 13 37 995.0 - 0.0 - - - - - - -
29/03:20pm 11.7 NNE 13 41 995.0 - 0.0 - - - - - - -
29/03:00pm 11.7 NNE 10 29 994.9 - 0.0 - - - - - - -
29/02:30pm 11.7 NE 12 41 995.3 - 0.0 - - - - - - -
29/02:17pm 11.7 NE 12 31 995.3 - 0.0 - - - - - - -
29/02:00pm 11.7 NNE 11 40 995.6 - 0.0 - - - - - - -
29/01:32pm 11.8 NE 14 47 995.8 - 0.0 - - - - - - -
29/01:30pm 11.8 NE 13 37 995.6 - 0.0 - - - - - - -
29/01:03pm 11.9 NE 13 33 996.0 - 0.0 - - - - - - -
29/01:00pm 11.8 NE 13 40 995.9 - 0.0 - - - - - - -
29/12:39pm 11.9 NE 13 37 996.4 - 0.0 - - - - - - -
29/12:30pm 12.0 NE 12 40 996.4 - 0.0 - - - - - - -
29/12:00pm 12.0 NE 16 38 996.9 - 0.0 - - - - - - -
29/11:30am 12.1 NNE 16 45 997.1 - 0.0 - - - - - - -
29/11:00am 12.1 NNE 18 51 997.2 - 0.0 - - - - - - -
29/10:30am 12.0 NE 24 51 997.6 - 0.0 - - - - - - -
29/10:00am 12.3 NNE 24 50 997.4 - 0.0 - - - - - - -
29/09:30am 12.1 NE 25 53 997.9 - 0.0 - - - - - - -
29/09:00am 12.1 NNE 23 51 997.8 - 0.0 - - - - - - -
29/08:30am 11.9 NNE 20 44 998.3 - 0.0 - - - - - - -
29/08:00am 12.0 NNE 20 41 998.6 - 0.0 - - - - - - -
29/07:30am 11.9 NNE 19 40 999.0 - 0.0 - - - - - - -
29/07:00am 11.9 NE 25 36 999.7 - 0.0 - - - - - - -
29/06:30am 11.8 NE 23 39 1000.0 - 0.0 - - - - - - -
29/06:00am 11.7 NE 24 42 1000.1 - 0.0 - - - - - - -
29/05:30am 11.6 NE 21 37 1000.0 - 0.0 - - - - - - -
29/05:00am 11.3 NE 21 41 1000.4 - 0.0 - - - - - - -
29/04:30am 11.2 NE 21 32 1000.8 - 0.0 - - - - - - -
29/04:00am 11.1 NE 18 28 1001.4 - 0.0 - - - - - - -
29/03:40am 10.8 NE 16 27 1001.5 - 0.0 - - - - - - -
29/03:30am 10.6 NE 13 22 1001.7 - 0.0 - - - - - - -
29/03:00am 10.6 NNE 17 28 1002.1 - 0.0 - - - - - - -
29/02:30am 10.5 NNE 25 32 1002.6 - 0.0 - - - - - - -
29/02:00am 10.4 NNE 25 34 1003.2 - 0.0 - - - - - - -
29/01:30am 10.5 NNE 23 31 1003.5 - 0.0 - - - - - - -
29/01:00am 10.5 NNE 22 31 1003.7 - 0.0 - - - - - - -
29/12:53am 10.5 NNE 21 31 1003.8 - 0.0 - - - - - - -
29/12:30am 10.6 NNE 24 32 1003.7 - 0.0 - - - - - - -
29/12:23am 10.5 NNE 22 32 1003.8 - 0.0 - - - - - - -
29/12:00am 10.5 NNE 24 31 1003.9 - 0.0 - - - - - - -
 
Date/Time
EST
Temp
°C
Wind Pressure Rain since
9am
mm
Weather Cloud Vis
km
Sea
Height
m
Swell
Dir  Spd
kts
Gust
kts
hPa Trend Height
m
Period
s
Dir
28/11:30pm 10.8 NNE 25 36 1004.3 - 0.0 - - - - - - -
28/11:13pm 10.9 NNE 17 38 1004.6 - 0.0 - - - - - - -
28/11:00pm 10.9 NNE 15 26 1004.7 - 0.0 - - - - - - -
28/10:58pm 10.9 NNE 15 26 1004.8 - 0.0 - - - - - - -
28/10:30pm 11.1 NE 14 28 1004.9 - 0.0 - - - - - - -
28/10:04pm 11.1 NE 15 25 1005.3 - 0.0 - - - - - - -
28/10:00pm 11.1 NE 14 24 1005.3 - 0.0 - - - - - - -
28/09:45pm 11.1 NE 15 27 1005.6 - 0.0 - - - - - - -
28/09:30pm 11.1 NE 14 25 1006.0 - 0.0 - - - - - - -
28/09:13pm 11.0 NE 16 29 1006.2 - 0.0 - - - - - - -
28/09:00pm 10.9 NE 13 26 1006.3 - 0.0 - - - - - - -
28/08:30pm 10.6 NE 13 26 1006.2 - 0.0 - - - - - - -
28/08:00pm 10.6 NNE 8 23 1006.3 - 0.0 - - - - - - -
28/07:30pm 10.4 NNE 8 19 1006.4 - 0.0 - - - - - - -
28/07:00pm 10.4 NNE 9 21 1006.5 - 0.0 - - - - - - -
28/06:30pm 10.3 NE 13 27 1006.7 - 0.0 - - - - - - -
28/06:00pm 10.3 NE 12 23 1006.3 - 0.0 - - - - - - -
28/05:30pm 10.3 NNE 7 21 1006.1 - 0.0 - - - - - - -
28/05:00pm 10.2 N 6 19 1006.0 - 0.0 - - - - - - -
28/04:30pm 10.5 N 5 14 1006.3 - 0.0 - - - - - - -
28/04:00pm 10.9 NE 4 9 1006.6 - 0.0 - - - - - - -
28/03:30pm 10.9 NE 4 12 1006.9 - 0.0 - - - - - - -
28/03:00pm 10.9 E 7 12 1007.3 - 0.0 - - - - - - -
28/02:30pm 11.4 E 5 10 1007.6 - 0.0 - - - - - - -
28/02:00pm 12.2 ENE 4 9 1008.0 - 0.0 - - - - - - -
28/01:30pm 12.4 E 4 7 1008.3 - 0.0 - - - - - - -
28/01:00pm 11.5 ESE 4 7 1008.5 - 0.0 - - - - - - -
28/12:30pm 12.0 S 4 6 1009.0 - 0.0 - - - - - - -
28/12:00pm 12.8 S 5 7 1009.0 - 0.0 - - - - - - -
28/11:30am 12.2 SW 5 9 1009.0 - 0.0 - - - - - - -
28/11:00am 11.3 SSW 6 11 1009.5 - 0.0 - - - - - - -
28/10:30am 12.1 WSW 5 9 1009.8 - 0.0 - - - - - - -
28/10:00am 12.5 W 3 7 1009.9 - 0.0 - - - - - - -
28/09:30am 11.6 W 5 8 1009.9 - 0.0 - - - - - - -
28/09:00am 11.3 WNW 3 7 1010.1 - 0.2 - - - - - - -
28/08:30am 10.4 W 5 13 1009.9 - 0.2 - - - - - - -
28/08:00am 10.1 WNW 3 10 1010.0 - 0.2 - - - - - - -
28/07:30am 10.0 NE 3 8 1009.8 - 0.2 - - - - - - -
28/07:00am 9.8 SW 3 8 1009.5 - 0.2 - - - - - - -
28/06:30am 9.2 W 5 14 1009.1 - 0.2 - - - - - - -
28/06:00am 9.1 S 4 12 1008.9 - 0.2 - - - - - - -
28/05:30am 9.2 NW 4 12 1008.4 - 0.2 - - - - - - -
28/05:00am 9.2 NNW 3 8 1008.2 - 0.2 - - - - - - -
28/04:30am 9.2 WSW 2 6 1008.3 - 0.2 - - - - - - -
28/04:00am 9.2 SW 3 9 1007.9 - 0.2 - - - - - - -
28/03:30am 9.6 NW 3 9 1007.7 - 0.2 - - - - - - -
28/03:00am 9.9 NW 7 13 1007.4 - 0.2 - - - - - - -
28/02:30am 9.7 NW 9 13 1007.3 - 0.2 - - - - - - -
28/02:00am 9.7 WNW 5 10 1007.2 - 0.2 - - - - - - -
28/01:30am 9.8 WNW 5 7 1007.2 - 0.2 - - - - - - -
28/01:00am 9.8 WNW 8 10 1007.3 - 0.2 - - - - - - -
28/12:30am 9.2 NW 6 10 1007.2 - 0.2 - - - - - - -
28/12:00am 9.6 NNW 9 15 1007.4 - 0.2 - - - - - - -
 
Date/Time
EST
Temp
°C
Wind Pressure Rain since
9am
mm
Weather Cloud Vis
km
Sea
Height
m
Swell
Dir  Spd
kts
Gust
kts
hPa Trend Height
m
Period
s
Dir
27/11:30pm 9.7 NNW 9 15 1007.4 - 0.2 - - - - - - -
27/11:00pm 10.1 N 14 18 1007.2 - 0.2 - - - - - - -
27/10:30pm 10.4 N 15 19 1007.4 - 0.2 - - - - - - -
27/10:00pm 10.2 N 17 21 1007.4 - 0.2 - - - - - - -
27/09:30pm 10.0 N 17 21 1007.5 - 0.2 - - - - - - -
27/09:00pm 10.1 NNE 14 18 1007.6 - 0.2 - - - - - - -
27/08:30pm 9.9 N 16 20 1007.6 - 0.2 - - - - - - -
27/08:00pm 10.0 N 16 21 1007.7 - 0.2 - - - - - - -
27/07:30pm 10.0 NNE 14 20 1007.7 - 0.2 - - - - - - -
27/07:00pm 9.9 NNE 15 20 1007.6 - 0.2 - - - - - - -
27/06:30pm 9.9 NNE 14 20 1007.2 - 0.2 - - - - - - -
27/06:00pm 10.0 NNE 13 18 1007.3 - 0.2 - - - - - - -
27/05:30pm 10.1 NNE 12 17 1007.1 - 0.2 - - - - - - -
27/05:00pm 10.5 NNE 13 17 1007.0 - 0.2 - - - - - - -
27/04:30pm 10.9 NNE 13 17 1006.9 - 0.2 - - - - - - -
27/04:00pm 11.2 NNE 13 17 1006.9 - 0.2 - - - - - - -
27/03:30pm 11.5 NNE 12 15 1007.0 - 0.2 - - - - - - -
27/03:00pm 11.7 NNE 10 13 1007.0 - 0.2 - - - - - - -
27/02:30pm 11.9 NNE 9 12 1007.0 - 0.2 - - - - - - -
27/02:00pm 12.3 NNE 8 13 1007.3 - 0.2 - - - - - - -
27/01:30pm 12.2 NNE 8 12 1007.4 - 0.2 - - - - - - -
27/01:00pm 12.8 NNE 9 12 1007.6 - 0.2 - - - - - - -
27/12:30pm 13.5 NNE 9 13 1007.7 - 0.2 - - - - - - -
27/12:00pm 12.1 NNE 9 13 1007.8 - 0.2 - - - - - - -
27/11:30am 11.9 NNE 10 14 1007.8 - 0.2 - - - - - - -
27/11:00am 11.6 NNE 9 13 1008.0 - 0.2 - - - - - - -
27/10:30am 12.3 NNE 10 14 1008.1 - 0.2 - - - - - - -
27/10:00am 11.4 N 10 13 1008.1 - 0.2 - - - - - - -
27/09:30am 11.3 NNE 10 14 1007.9 - 0.2 - - - - - - -
27/09:00am 11.5 NNE 10 14 1008.0 - 4.2 - - - - - - -
27/08:30am 11.1 NNE 8 12 1008.0 - 4.2 - - - - - - -
27/08:00am 10.6 NNE 6 9 1008.1 - 4.2 - - - - - - -
27/07:30am 10.1 NE 5 7 1008.0 - 4.2 - - - - - - -
27/07:00am 9.4 NE 4 7 1008.0 - 4.2 - - - - - - -
27/06:30am 7.8 NE 4 5 1008.0 - 4.2 - - - - - - -
27/06:00am 7.8 NE 3 4 1007.7 - 4.2 - - - - - - -
27/05:30am 8.1 ENE 1 1 1007.5 - 4.2 - - - - - - -
27/05:00am 7.6 W 1 2 1007.4 - 4.2 - - - - - - -
27/04:30am 8.0 N 2 4 1007.2 - 4.2 - - - - - - -
27/04:00am 7.9 NNE 5 6 1007.2 - 4.2 - - - - - - -
27/03:30am 7.9 N 6 8 1007.2 - 4.2 - - - - - - -
27/03:00am 8.5 N 6 10 1007.4 - 4.2 - - - - - - -

Other Formats:

Comma delimited format used in spreadsheet applications
http://www.bom.gov.au/fwo/IDT60701/IDT60701.95986.axf

JavaScript Object Notation format (JSON) in row-major order
http://www.bom.gov.au/fwo/IDT60701/IDT60701.95986.json